Location: Chiroubles
(46.1812°N, 4.6660°E)
Time: 23:56:19
(UTC+00:00)

Vanguard 2 - All Passes

Search period start: 05 December 2020 00:00
Search period end: 15 December 2020 00:00
Orbit: 554 x 2937 km, 32.9° (Epoch: 05 December)

Date Brightness Start Highest point End Pass type
(mag) Time Alt. Az. Time Alt. Az. Time Alt. Az.
05 Dec - 05:47:40 10° S 05:53:15 15° SSE 05:57:43 10° SE visible
05 Dec - 07:55:15 10° SW 08:01:49 23° S 08:06:30 10° SE daylight
05 Dec - 10:05:10 10° WSW 10:09:35 20° SSW 10:13:02 10° SSE daylight
06 Dec - 06:03:38 10° SSW 06:10:58 20° SSE 06:16:24 10° ESE visible
06 Dec - 08:12:35 10° SW 08:19:29 26° S 08:24:17 10° SE daylight
06 Dec - 10:23:04 10° WSW 10:27:05 18° SSW 10:30:18 10° SSE daylight
07 Dec - 04:14:44 10° S 04:19:34 13° SSE 04:23:44 10° SE visible
07 Dec - 06:20:14 10° SW 06:28:41 24° SSE 06:34:37 10° ESE visible
07 Dec - 08:30:05 10° WSW 08:37:06 27° S 08:41:56 10° SE daylight
07 Dec - 10:41:13 10° WSW 10:44:32 15° SSW 10:47:17 10° S daylight
08 Dec - 04:29:25 10° SSW 04:37:15 18° SSE 04:43:24 10° ESE visible
08 Dec - 06:37:13 10° SW 06:46:23 28° S 06:52:36 10° ESE visible
08 Dec - 08:47:46 10° WSW 08:54:41 27° S 08:59:28 10° SE daylight
08 Dec - 10:59:54 10° SW 11:01:54 12° SSW 11:03:41 10° S daylight
09 Dec - 04:45:17 10° SSW 04:54:57 23° SSE 05:02:05 10° ESE visible
09 Dec - 06:54:28 10° SW 07:04:04 31° S 07:10:24 10° ESE daylight
09 Dec - 09:05:33 10° WSW 09:12:14 25° SSW 09:16:53 10° SE daylight
10 Dec - 02:56:42 10° S 03:03:05 14° SSE 03:08:36 10° ESE visible
10 Dec - 05:01:46 10° SW 05:12:39 28° SSE 05:20:19 10° ESE visible
10 Dec - 07:11:56 10° WSW 07:21:44 33° S 07:28:06 10° ESE daylight
10 Dec - 09:23:30 10° WSW 09:29:41 23° SSW 09:34:08 10° SSE daylight
11 Dec - 03:11:13 10° S 03:20:42 19° SSE 03:28:21 10° ESE visible
11 Dec - 05:18:39 10° SW 05:30:21 32° SSE 05:38:19 10° ESE visible
11 Dec - 07:29:33 10° WSW 07:39:21 34° S 07:45:41 10° SE daylight
11 Dec - 09:41:37 10° WSW 09:47:04 19° SSW 09:51:09 10° SSE daylight
12 Dec - 03:26:54 10° SSW 03:38:21 24° SSE 03:47:08 10° ESE visible
12 Dec - 05:35:49 10° SW 05:48:03 36° S 05:56:09 10° ESE visible
12 Dec - 07:47:18 10° WSW 07:56:55 33° SSW 08:03:11 10° SE daylight
12 Dec - 10:00:04 10° WSW 10:04:21 15° SW 10:07:47 10° S daylight
13 Dec - 01:39:27 10° SSE 01:46:09 14° SE 01:52:13 10° ESE visible
13 Dec - 03:43:12 10° SSW 03:55:59 29° SSE 04:05:27 10° ESE visible
13 Dec - 05:53:12 10° WSW 06:05:44 39° S 06:13:53 10° ESE visible
13 Dec - 08:05:09 10° WSW 08:14:26 31° SSW 08:20:33 10° SE daylight
13 Dec - 10:19:22 10° WSW 10:21:33 11° SW 10:23:30 10° SSW daylight
14 Dec - 01:53:30 10° S 02:03:39 19° SSE 02:12:23 10° ESE visible
14 Dec - 03:59:56 10° SW 04:13:39 34° SSE 04:23:30 10° ESE visible
14 Dec - 06:10:45 10° WSW 06:23:23 40° S 06:31:32 10° ESE visible
14 Dec - 08:23:08 10° WSW 08:31:52 28° SSW 08:37:47 10° SSE daylight
